Find Starlink 34736

NORAD ID: 64846 Int'l Des: 2025-152 Owner: SPXS Country: US Constellation: starlink operational
LEOCIRCULARRETROGRADESSO

当前视图

正在加载3D地球...

About Starlink 34736

Starlink 34736 (NORAD 64846) is a starlink constellation satellite (v2 mini) launched Jul 19, 2025 by SPXS of US. It operates in LEO, CIRCULAR, RETROGRADE, SSO orbit with a mass of 575.00 kg.

即将过境

Passes for default location (London). Set your location on the main map for personalized predictions.

高度历史

Loading altitude history...

两行轨道根数

1 64846U 25152E 26263.55388327 .00008610 00000-0 26861-3 0 9994
2 64846 97.2834 114.1258 0001472 83.0210 277.1200 15.33456791 64837
Epoch: Sep 20, 2026 • Age: 16 hours

当前状态

高度 477.0 km
远地点 / 近地点 N/A
速度 7.63 km/s
星下点 72.05°N, 123.47°W
发射日期 Jul 19, 2025
运行时间 1.1 years
类型 internet

技术详情

分类 Payload
质量 575.00 kg
干质量 530.00 kg
长度 0.30 m
跨度 29.00 m
形状 ? Box + pan
制造商 SPXS
平台类型 Starlink V2MO
阶段状态 In Orbit
所有者/国家 SPXS/US

Most Searched